CAPE
0 0 0 0 0 0 0 0 0 0 0 0 0 0 0 0 1 7 5 1 4 3 4 4 2 2 4
0 0 0 0 0 0 0 0 0 0 0 0 0 2 1 1 10 0 1 0 2 2 2 1 1 3 3
0 0 0 0 0 0 0 0 0 0 0 0 0 0 0 3 7 6 0 0 0 0 0 0 0 1 4
0 0 0 0 0 0 0 0 0 0 0 0 0 0 0 0 0 0 0 0 0 0 0 1 1 3 7
0 0 0 0 0 0 0 0 0 0 0 0 0 0 0 0 0 0 0 0 0 1 3 4 4 9 8
0 0 0 0 0 0 0 0 1 0 0 0 0 0 0 0 0 0 0 0 2 4 2 5 7 8 10
0 0 0 0 0 0 0 0 0 0 0 0 0 0 0 0 0 0 0 1 4 3 2 4 5 12 25
0 0 0 0 0 0 0 0 0 0 0 0 0 0 0 0 0 0 0 1 0 1 3 4 20 16 15
1 3 4 9 26 8 0 0 0 0 0 0 0 0 0 0 0 0 0 0 0 6 18 9 10 10 6
0 0 0 0 0 0 0 0 0 0 0 0 0 0 0 0 0 0 0 1 8 5 2 1 0 0 0
0 0 0 0 0 0 0 0 0 0 0 4 0 1 3 8 0 0 0 0 0 0 0 0 0 0 0
1 0 0 0 0 0 1 1 0 0 0 5 1 3 0 0 0 0 0 0 0 0 0 0 0 0 0
0 0 0 0 0 1 1 5 4 4 4 1 0 0 0 0 0 0 0 0 0 0 0 0 0 0 0
0 0 0 5 18 4 1 0 0 0 0 0 0 0 0 0 0 0 0 1 0 0 0 0 0 0 0
0 0 0 0 0 0 0 0 0 0 0 0 0 0 0 1 3 1 0 0 0 0 0 0 0 0 0
0 0 0 0 0 0 0 0 0 0 0 0 0 0 0 1 2 3 2 1 0 0 0 3 0 0 0
0 0 0 0 0 0 0 0 0 0 0 0 0 0 0 0 0 0 1 0 0 0 0 0 0 0 0
CIN
0 0 0 0 0 0 0 0 0 0 0 0 0 0 -1 -1 -1 -2 -1 -1 -1 -1 -2 -1 -1 -1 -2
0 0 0 0 0 0 0 0 0 0 0 0 0 -2 -1 -1 -1 -2 -2 0 -1 -1 -1 -1 -1 -1 -1
0 0 0 0 0 0 0 0 0 0 0 0 0 0 -1 -2 -1 -1 0 -1 0 0 0 0 0 -1 -2
0 0 0 0 0 0 0 0 0 0 0 0 0 0 0 0 0 0 0 0 0 0 0 -1 -1 -1 -2
0 0 0 0 0 0 0 0 0 0 0 0 0 0 0 0 0 0 0 0 0 -1 -2 -1 -1 -1 -2
0 0 0 0 0 0 0 0 0 0 0 0 0 0 0 0 0 0 0 0 -1 -2 -1 -2 -2 -2 -2
0 0 -2 0 -1 0 0 0 0 0 0 0 0 0 0 0 0 0 0 -1 -1 -2 -2 -2 -2 -2 -2
0 0 0 0 0 0 0 0 0 0 0 0 0 0 0 0 0 0 -1 -1 -1 -2 -2 -2 -2 -3 -2
-2 -3 -3 -4 -5 -12 -6 0 0 0 -3 0 0 0 0 0 0 0 0 0 -2 -2 -2 -4 -3 -3 -5
0 0 0 0 0 0 0 0 0 0 0 0 0 0 0 0 0 0 0 0 -2 -3 -3 -2 0 0 0
0 0 0 0 0 0 0 0 0 0 0 -2 -1 -2 -2 -7 0 0 0 0 0 0 0 0 0 0 0
-5 0 0 0 -8 -2 -1 0 0 0 -7 -2 -3 -2 -2 0 0 0 0 0 0 0 0 0 0 0 -1
-1 -1 -2 0 -1 0 -3 -1 -2 -4 -2 0 0 0 0 0 0 0 0 0 0 0 0 0 0 0 0
0 0 0 0 -1 -4 -1 0 0 0 0 0 0 0 0 0 0 0 -1 -1 0 0 0 0 0 0 -1
0 0 0 0 0 0 0 0 0 0 0 0 0 0 0 0 -1 -2 -1 -1 0 0 0 0 0 0 -1
0 0 0 0 0 0 0 0 0 0 0 0 0 0 0 0 -1 -1 -1 -1 0 0 0 0 -1 0 -2
0 0 0 0 0 0 0 0 0 0 0 0 0 0 0 0 0 0 -2 0 0 0 0 0 -1 0 0
Wind_Speed
43 42 43 43 43 42 42 42 42 44 44 44 44 44 44 45 45 45 45 47 48 48 48 49 49 49 48
46 45 45 41 42 43 43 42 42 41 43 44 43 43 46 46 43 45 46 48 48 48 48 49 50 50 50
48 44 44 41 44 42 42 42 40 41 43 40 42 43 44 45 45 47 50 48 48 48 49 49 50 51 51
46 46 44 42 42 45 45 42 43 39 38 40 42 45 47 48 49 50 48 48 48 50 50 50 51 52 53
46 46 46 44 44 43 45 44 43 40 42 43 45 46 45 45 45 45 46 47 49 50 51 52 53 53 54
46 47 46 43 41 41 43 45 49 36 42 48 45 47 45 44 44 46 47 48 49 51 52 52 54 55 56
44 42 42 38 38 41 43 45 49 47 47 53 43 47 44 44 47 48 48 49 51 53 54 54 55 55 55
44 45 43 42 42 43 44 46 46 44 41 54 44 48 45 44 46 47 49 52 53 54 53 54 54 56 57
40 40 41 41 40 40 43 43 46 43 37 41 43 46 45 47 46 49 51 52 51 51 50 51 54 57 59
37 39 40 41 42 42 44 47 48 51 43 45 46 45 51 43 46 45 44 44 44 46 50 54 57 58 58
38 38 38 38 39 38 38 40 44 45 40 39 44 43 45 46 39 40 41 44 46 50 54 57 58 57 57
38 39 39 38 37 37 37 36 36 39 38 37 39 39 44 50 54 51 50 50 50 52 51 52 54 56 56
37 38 38 39 38 38 37 36 36 35 33 34 38 43 45 50 53 51 52 49 45 48 49 50 52 51 54
40 41 39 39 37 34 36 36 38 39 36 36 39 42 46 46 47 49 44 47 48 47 49 51 51 49 51
38 39 38 36 35 33 34 37 39 41 43 40 40 42 41 42 43 42 46 47 45 47 47 51 51 49 49
33 34 33 31 33 34 35 36 39 40 42 44 45 45 43 41 35 43 43 44 43 44 45 50 56 52 50
29 29 31 33 35 36 37 38 40 42 44 43 41 40 45 46 44 33 37 38 41 44 44 46 54 58 53
Wind_Direction
303 305 304 303 303 303 303 302 302 301 299 299 297 296 295 295 294 293 294 294 293 292 292 291 291 290 288
301 302 301 304 303 302 302 301 301 300 299 299 298 297 295 293 293 295 294 294 293 292 292 291 289 288 287
299 301 301 302 301 302 301 301 301 300 299 298 298 298 297 295 294 294 293 292 291 290 291 290 289 288 286
297 298 299 300 300 299 299 300 299 301 299 298 299 299 296 294 293 292 292 291 290 290 290 289 288 288 286
296 297 297 298 297 299 297 298 298 299 298 298 299 299 298 296 294 293 292 291 290 289 289 288 287 287 286
294 294 295 296 297 297 297 297 295 299 298 298 299 297 296 295 295 294 292 291 290 289 289 287 287 286 285
293 294 296 297 298 297 297 296 295 297 297 296 299 295 297 296 294 293 291 290 289 289 288 287 287 286 285
291 293 293 294 293 293 294 294 294 295 296 293 297 295 296 295 293 293 291 290 289 288 287 286 286 286 285
291 292 293 292 292 293 293 294 295 297 300 296 298 297 296 295 294 293 292 290 289 288 287 287 288 287 286
292 293 293 293 293 292 293 292 293 293 296 295 296 297 295 296 296 295 294 292 290 290 289 289 288 288 286
291 292 292 293 293 293 292 291 292 293 297 297 297 297 296 298 301 300 297 294 292 291 290 289 288 287 286
291 291 292 292 294 294 294 293 293 293 297 298 298 298 297 296 294 295 294 293 292 291 290 289 288 286 285
291 293 294 296 297 297 296 296 296 296 297 298 298 298 297 295 295 295 294 293 293 292 291 289 288 287 286
291 293 295 296 297 299 298 298 297 297 298 298 298 297 297 295 295 294 294 293 293 292 291 289 289 288 286
291 293 294 294 295 298 299 300 298 299 299 299 300 299 296 295 294 294 295 294 293 293 293 290 289 289 288
292 293 295 295 298 300 300 299 299 300 300 301 301 300 298 295 290 294 294 294 295 295 293 291 287 288 288
293 296 297 299 299 299 300 301 300 300 300 301 301 300 298 297 298 295 296 297 297 295 294 292 290 285 288